Regional Weather Roundup
Issued by NWS

Home | Current Version | Previous Version | Text Only | Print | Product List | Glossary On
Versions: 1 2 3 4 5 6 7 8 9 10 11 12 13 14 15 16 17 18 19 20 21 22 23 24 25 26 27 28 29 30 31 32 33 34 35 36 37 38 39 40 41 42 43 44 45 46 47 48 49 50
000
ASCA42 TJSJ 031510
RWRPR
PUERTO RICO/U.S. VIRGIN ISLANDS HOURLY WEATHER ROUNDUP
NATIONAL WEATHER SERVICE SAN JUAN PR
1100 AM AST SUN MAY 03 2015

PRZ001-004-031600-
PUERTO RICO

CITY           SKY/WX    TMP DP  RH WIND       PRES   REMARKS
SAN JUAN LMM   PTSUNNY   88  73  62 E16       30.01F HX  96
PONCE          MOSUNNY   88  73  62 SE14      29.96S HX  96
$$

PRZ006-007-031600-
U.S. VIRGIN ISLANDS

CITY           SKY/WX    TMP DP  RH WIND       PRES   REMARKS
CHARLOTTE AMA  SUNNY     84  73  70 SE17      30.02S HX  91
CHRISTIANSTED  MOSUNNY   88  72  58 E16       30.04S HX  94
$$

HOURLY WEATHER ROUNDUP FOR THE NEWS MEDIA

CITY           SKY/WX    TMP DP  RH WIND       PRES   REMARKS
ORLANDO        SUNNY     77  53  43 E8G17     30.17R
NEW YORK       PTSUNNY   60  43  53 S7        30.11R
NEWARK         PTSUNNY   66  42  41 VRB3      30.09S
CHICAGO        PTSUNNY   69  46  43 SW12      29.97S
HARTFORD       CLOUDY    61  43  51 S8        30.08R
BOSTON         MOSUNNY   58  43  57 SE8       30.07R
DALLAS         PTSUNNY   72  57  59 S10       30.02S
PHILADELPHIA   MOSUNNY   69  45  41 CALM      30.11S
LOS ANGELES    PTSUNNY   61  53  75 E5        29.92R
WASHINGTON DC  MOSUNNY   74  41  30 VRB5      30.14R


USA.gov is the U.S. government's official web portal to all federal, state and local government web resources and services.